FW2847 Weather Reports


Display with metric or nautical units.
time (UTC)temp
F
wind
direction
speed
MPH
gust
MPH
rain 1hr
in
rain 24hr
in
rain mn
in
humidity
%
barometer
mb
20260509124257 57 19 0.0 1.0 0.00 0.00 0.00 39 1020.6
20260509124028 57 278 0.0 0.0 0.00 0.00 0.00 38 1020.6
20260509123258 58 278 0.0 1.0 0.00 0.00 0.00 37 1020.6
20260509122756 57 276 0.0 4.0 0.00 0.00 0.00 37 1020.6
20260509122256 58 307 0.0 5.0 0.00 0.00 0.00 37 1020.6
20260509121756 58 321 0.0 5.0 0.00 0.00 0.00 36 1020.6
20260509121258 57 352 0.0 3.0 0.00 0.00 0.00 38 1020.6
20260509121027 57 294 1.0 5.0 0.00 0.00 0.00 38 1020.6
20260509120255 57 302 2.0 7.0 0.00 0.00 0.00 38 1020.6
20260509115755 57 302 2.0 7.0 0.00 0.00 0.00 39 1020.6
20260509115254 57 313 0.0 5.0 0.00 0.00 0.00 39 1020.6
20260509114754 57 298 1.0 6.0 0.00 0.00 0.00 39 1020.6
20260509114255 57 290 4.0 12.0 0.00 0.00 0.00 39 1020.6
20260509114023 58 281 7.0 17.0 0.00 0.00 0.00 37 1020.6
20260509113525 60 261 8.0 17.0 0.00 0.00 0.00 34 1020.6
20260509112753 59 283 6.0 16.0 0.00 0.00 0.00 33 1020.6
20260509112252 59 304 4.0 12.0 0.00 0.00 0.00 35 1020.6
20260509111755 59 305 1.0 12.0 0.00 0.00 0.00 33 1020.6
20260509111252 59 285 2.0 14.0 0.00 0.00 0.00 34 1020.6
20260509110750 59 261 2.0 14.0 0.00 0.00 0.00 35 1020.6
20260509110251 59 264 2.0 5.0 0.00 0.00 0.00 35 1020.6
20260509105753 59 112 2.0 5.0 0.00 0.00 0.00 33 1020.6
20260509105249 58 274 1.0 7.0 0.00 0.00 0.00 35 1020.6
20260509104748 59 319 1.0 7.0 0.00 0.00 0.00 35 1020.6
20260509104249 58 2 1.0 5.0 0.00 0.00 0.00 35 1020.6
20260509103747 58 359 0.0 5.0 0.00 0.00 0.00 37 1020.6
20260509103247 58 274 1.0 3.0 0.00 0.00 0.00 36 1020.6
20260509103017 58 269 1.0 5.0 0.00 0.00 0.00 35 1020.6
20260509102249 58 4 1.0 5.0 0.00 0.00 0.00 36 1020.6
20260509101746 59 265 1.0 6.0 0.00 0.00 0.00 35 1020.6
20260509101246 59 53 2.0 9.0 0.00 0.00 0.00 35 1020.6
20260509100747 59 309 4.0 9.0 0.00 0.00 0.00 35 1020.6
20260509100246 59 280 3.0 8.0 0.00 0.00 0.00 35 1020.6
20260509095744 59 293 3.0 10.0 0.00 0.00 0.00 34 1020.6
20260509095245 60 291 4.0 13.0 0.00 0.00 0.00 34 1020.6
20260509095016 60 283 3.0 13.0 0.00 0.00 0.00 33 1020.6
20260509094517 61 282 2.0 8.0 0.00 0.00 0.00 32 1020.6
20260509093745 60 276 3.0 9.0 0.00 0.00 0.00 33 1020.6
20260509093242 61 267 3.0 9.0 0.00 0.00 0.00 32 1020.6
20260509092744 61 289 3.0 9.0 0.00 0.00 0.00 32 1020.6
20260509092244 60 302 4.0 9.0 0.00 0.00 0.00 32 1020.6
20260509091741 61 322 6.0 12.0 0.00 0.00 0.00 33 1020.6
20260509091242 61 311 8.0 22.0 0.00 0.00 0.00 32 1020.6
20260509090743 61 298 8.0 22.0 0.00 0.00 0.00 32 1020.6
20260509090242 61 302 6.0 15.0 0.00 0.00 0.00 33 1020.6
20260509085743 61 298 5.0 12.0 0.00 0.00 0.00 34 1020.6
20260509085242 62 290 6.0 13.0 0.00 0.00 0.00 33 1020.6
20260509084743 62 278 6.0 13.0 0.00 0.00 0.00 32 1020.6
20260509084512 62 293 5.0 11.0 0.00 0.00 0.00 33 1020.6
20260509083740 61 293 5.0 10.0 0.00 0.00 0.00 34 1020.6
20260509083241 61 305 5.0 11.0 0.00 0.00 0.00 34 1020.6
20260509082741 60 265 4.0 11.0 0.00 0.00 0.00 35 1020.6
20260509082241 60 284 5.0 10.0 0.00 0.00 0.00 36 1020.6
20260509081738 59 285 3.0 10.0 0.00 0.00 0.00 37 1020.6
20260509081239 59 285 2.0 6.0 0.00 0.00 0.00 38 1020.6
20260509080740 59 279 2.0 6.0 0.00 0.00 0.00 38 1020.6
20260509080510 59 275 1.0 4.0 0.00 0.00 0.00 38 1020.6
20260509075739 58 253 1.0 4.0 0.00 0.00 0.00 39 1020.6
20260509075508 57 265 0.0 3.0 0.00 0.00 0.00 42 1020.6
20260509074737 56 283 0.0 3.0 0.00 0.00 0.00 44 1020.6
20260509074239 55 277 1.0 4.0 0.00 0.00 0.00 46 1020.6
20260509073738 55 293 2.0 6.0 0.00 0.00 0.00 48 1020.6
20260509073239 55 285 3.0 7.0 0.00 0.00 0.00 47 1020.6
20260509072738 55 304 3.0 7.0 0.00 0.00 0.00 49 1020.6
20260509072238 54 274 3.0 6.0 0.00 0.00 0.00 51 1020.6
20260509072008 53 276 2.0 6.0 0.00 0.00 0.00 54 1020.6
20260509071855 52 303 1.0 4.0 0.00 0.00 0.00 58 1020.6
20260509070739 53 290 0.0 0.0 0.00 0.00 0.00 59 1020.6
20260509070237 52 290 0.0 0.0 0.00 0.00 0.00 60 1020.6
20260509065740 52 290 0.0 0.0 0.00 0.00 0.00 61 1020.6
20260509065238 52 290 0.0 0.0 0.00 0.00 0.00 61 1020.6
20260509065009 53 159 0.0 0.0 0.00 0.00 0.00 61 1020.6
20260509064237 53 158 0.0 0.0 0.00 0.00 0.00 59 1020.6
20260509064012 54 158 0.0 0.0 0.00 0.00 0.00 57 1020.6
20260509063238 53 158 0.0 0.0 0.00 0.00 0.00 57 1020.6
20260509062738 53 158 0.0 0.0 0.00 0.00 0.00 58 1020.6
20260509062239 53 158 0.0 0.0 0.00 0.00 0.00 59 1020.6
20260509061737 53 158 0.0 0.0 0.00 0.00 0.00 59 1020.6
20260509061235 53 211 0.0 0.0 0.00 0.00 0.00 61 1020.6
20260509060735 53 203 0.0 0.0 0.00 0.00 0.00 62 1020.6
20260509060237 53 203 0.0 0.0 0.00 0.00 0.00 61 1020.6
20260509055735 53 145 0.0 2.0 0.00 0.00 0.00 61 1020.6
20260509055235 54 217 0.0 2.0 0.00 0.00 0.00 60 1020.6
20260509054734 54 111 0.0 0.0 0.00 0.00 0.00 60 1020.6
20260509054237 54 89 0.0 0.0 0.00 0.00 0.00 59 1020.6
20260509053736 54 91 0.0 0.0 0.00 0.00 0.00 59 1020.6
20260509053237 55 241 0.0 1.0 0.00 0.00 0.00 59 1020.6
20260509052736 55 154 0.0 1.0 0.00 0.00 0.00 58 1020.6
20260509052235 55 82 0.0 0.0 0.00 0.00 0.00 57 1020.6
20260509052010 55 193 0.0 2.0 0.00 0.00 0.00 57 1020.6
20260509051236 55 161 0.0 2.0 0.00 0.00 0.00 57 1020.6
20260509050737 55 80 0.0 1.0 0.00 0.00 0.00 57 1020.6
20260509050235 55 264 0.0 2.0 0.00 0.00 0.00 58 1020.6
20260509050005 55 272 0.0 2.0 0.00 0.00 0.00 58 1020.6
20260509045504 56 122 0.0 0.0 0.00 0.00 0.00 57 1020.6
20260509044735 56 91 0.0 2.0 0.00 0.00 0.00 57 1020.6
20260509044238 56 124 0.0 2.0 0.00 0.00 0.00 57 1020.6
20260509044234 56 62 0.0 2.0 0.00 0.00 0.00 57 1020.6
20260509043506 56 287 0.0 2.0 0.00 0.00 0.00 57 1020.6
20260509043005 56 107 0.0 2.0 0.00 0.00 0.00 56 1020.6
20260509042234 56 11 0.0 2.0 0.00 0.00 0.00 57 1020.6
20260509042006 56 109 0.0 2.0 0.00 0.00 0.00 57 1020.6
20260509041232 56 262 0.0 2.0 0.00 0.00 0.00 57 1020.6
20260509040732 56 271 0.0 1.0 0.00 0.00 0.00 58 1020.6
20260509040504 56 271 0.0 1.0 0.00 0.00 0.00 57 1020.6
20260509035731 56 271 0.0 0.0 0.00 0.00 0.00 57 1020.6
20260509035231 56 271 0.0 0.0 0.00 0.00 0.00 57 1020.6
20260509035005 56 271 0.0 0.0 0.00 0.00 0.00 57 1020.6
20260509034232 56 248 0.0 0.0 0.00 0.00 0.00 56 1020.6
20260509033732 57 248 0.0 0.0 0.00 0.00 0.00 55 1020.6
20260509033232 57 248 0.0 0.0 0.00 0.00 0.00 55 1020.6
20260509032733 57 248 0.0 0.0 0.00 0.00 0.00 55 1020.6
20260509032230 58 248 0.0 0.0 0.00 0.00 0.00 54 1020.6
20260509031729 58 248 0.0 0.0 0.00 0.00 0.00 53 1020.6
20260509031229 58 248 0.0 0.0 0.00 0.00 0.00 53 1020.6
20260509030730 58 248 0.0 0.0 0.00 0.00 0.00 51 1020.6
20260509030230 58 248 0.0 0.0 0.00 0.00 0.00 50 1020.6
20260509025730 58 248 0.0 0.0 0.00 0.00 0.00 50 1020.6
20260509025229 59 248 0.0 1.0 0.00 0.00 0.00 49 1020.6
20260509024731 59 248 0.0 3.0 0.00 0.00 0.00 50 1020.6
20260509024229 59 97 0.0 3.0 0.00 0.00 0.00 51 1020.6
20260509023730 59 253 0.0 0.0 0.00 0.00 0.00 50 1020.6
20260509023228 59 69 0.0 0.0 0.00 0.00 0.00 50 1020.6
20260509022728 59 313 0.0 0.0 0.00 0.00 0.00 52 1020.6
20260509022227 59 106 0.0 0.0 0.00 0.00 0.00 51 1020.6
20260509021728 59 106 0.0 0.0 0.00 0.00 0.00 50 1020.6
20260509021229 60 106 0.0 0.0 0.00 0.00 0.00 49 1020.6
20260509020729 60 106 0.0 1.0 0.00 0.00 0.00 49 1020.6
20260509020227 61 106 0.0 1.0 0.00 0.00 0.00 48 1020.6
20260509015727 61 114 0.0 2.0 0.00 0.00 0.00 48 1020.6
20260509015227 61 128 0.0 2.0 0.00 0.00 0.00 48 1020.6
20260509014729 61 92 0.0 0.0 0.00 0.00 0.00 47 1020.6
20260509014227 61 114 0.0 1.0 0.00 0.00 0.00 48 1020.6
20260509013957 61 98 0.0 1.0 0.00 0.00 0.00 48 1020.6
20260509013229 61 109 0.0 2.0 0.00 0.00 0.00 47 1020.6
20260509012728 62 94 0.0 2.0 0.00 0.00 0.00 47 1020.6
20260509012226 62 101 0.0 2.0 0.00 0.00 0.00 46 1020.6
20260509011725 62 96 0.0 2.0 0.00 0.00 0.00 46 1020.6
20260509011228 62 105 0.0 1.0 0.00 0.00 0.00 46 1020.6
20260509010957 62 86 0.0 2.0 0.00 0.00 0.00 45 1020.6
20260509010225 63 115 0.0 2.0 0.00 0.00 0.00 45 1020.6
20260509005726 64 96 0.0 2.0 0.00 0.00 0.00 44 1020.6
20260509005457 65 108 0.0 3.0 0.00 0.00 0.00 43 1020.6
20260509004724 65 108 0.0 3.0 0.00 0.00 0.00 42 1020.6
20260509004226 64 218 0.0 3.0 0.00 0.00 0.00 43 1020.6
20260509003727 65 112 1.0 4.0 0.00 0.00 0.00 42 1020.6
20260509003224 65 86 0.0 4.0 0.00 0.00 0.00 42 1020.6
20260509002726 65 84 1.0 4.0 0.00 0.00 0.00 43 1020.6
20260509002227 65 71 2.0 5.0 0.00 0.00 0.00 42 1020.6
20260509001725 65 117 2.0 5.0 0.00 0.00 0.00 43 1020.6
20260509001226 66 86 1.0 4.0 0.00 0.00 0.00 43 1020.6
20260509000723 66 101 0.0 4.0 0.00 0.00 0.00 42 1020.6
20260509000226 66 83 1.0 5.0 0.00 0.00 0.00 43 1020.6
20260508235723 66 68 2.0 8.0 0.00 0.00 0.00 40 1020.6
20260508235224 66 96 3.0 8.0 0.00 0.00 0.00 42 1020.6
20260508234720 66 88 3.0 7.0 0.00 0.00 0.00 42 1020.6
20260508234222 65 77 3.0 8.0 0.00 0.00 0.00 42 1020.6
20260508233721 66 77 4.0 9.0 0.00 0.00 0.00 42 1020.6
20260508233222 66 100 3.0 9.0 0.00 0.00 0.00 42 1020.6
20260508232722 66 91 1.0 4.0 0.00 0.00 0.00 43 1020.6
20260508232451 66 84 2.0 7.0 0.00 0.00 0.00 41 1020.6
20260508231718 66 91 4.0 8.0 0.00 0.00 0.00 44 1020.6
20260508231220 66 84 3.0 8.0 0.00 0.00 0.00 43 1020.6
20260508230952 66 48 3.0 7.0 0.00 0.00 0.00 43 1020.6
20260508230449 66 60 3.0 7.0 0.00 0.00 0.00 42 1020.6
20260508225719 66 75 2.0 7.0 0.00 0.00 0.00 44 1020.6
20260508225221 66 84 1.0 4.0 0.00 0.00 0.00 42 1020.6
20260508224719 66 105 2.0 5.0 0.00 0.00 0.00 42 1020.6
20260508224218 66 10 3.0 6.0 0.00 0.00 0.00 43 1020.6
20260508223720 65 319 3.0 8.0 0.00 0.00 0.00 43 1020.6
20260508223220 65 71 3.0 8.0 0.00 0.00 0.00 45 1020.6
20260508222719 65 89 3.0 8.0 0.00 0.00 0.00 44 1020.6
20260508222449 65 357 4.0 8.0 0.00 0.00 0.00 44 1020.6
20260508221725 65 77 4.0 9.0 0.00 0.00 0.00 44 1020.6
20260508221720 65 77 3.0 8.0 0.00 0.00 0.00 44 1020.6
20260508220719 65 345 6.0 14.0 0.00 0.00 0.00 44 1020.6
20260508220218 65 71 5.0 14.0 0.00 0.00 0.00 44 1020.6
20260508215725 66 23 4.0 10.0 0.00 0.00 0.00 45 1020.6
20260508215718 65 62 4.0 9.0 0.00 0.00 0.00 45 1020.6
20260508214718 66 100 4.0 10.0 0.00 0.00 0.00 45 1020.6
20260508214219 66 107 4.0 13.0 0.00 0.00 0.00 44 1020.6
20260508213720 65 77 4.0 13.0 0.00 0.00 0.00 46 1020.6
20260508213218 65 63 3.0 9.0 0.00 0.00 0.00 44 1020.6
20260508212720 66 84 4.0 7.0 0.00 0.00 0.00 45 1020.6
20260508212220 66 63 4.0 8.0 0.00 0.00 0.00 45 1020.6
20260508211720 66 71 2.0 17.0 0.00 0.00 0.00 44 1020.6
20260508211449 65 83 2.0 17.0 0.00 0.00 0.00 47 1020.6
20260508210718 64 354 3.0 7.0 0.00 0.00 0.00 44 1020.6
20260508210221 64 22 5.0 10.0 0.00 0.00 0.00 45 1020.6
20260508205718 64 9 4.0 10.0 0.00 0.00 0.00 46 1020.6
20260508205218 63 77 3.0 11.0 0.00 0.00 0.00 47 1020.6
20260508204718 63 96 4.0 11.0 0.00 0.00 0.00 47 1020.6
20260508204220 63 321 5.0 10.0 0.00 0.00 0.00 45 1020.6
20260508203719 64 59 5.0 11.0 0.00 0.00 0.00 46 1020.6
20260508203219 64 102 4.0 11.0 0.00 0.00 0.00 46 1020.6
20260508202719 65 64 3.0 9.0 0.00 0.00 0.00 47 1020.6
20260508202220 64 126 4.0 12.0 0.00 0.00 0.00 46 1020.6
20260508201719 63 91 4.0 12.0 0.00 0.00 0.00 48 1020.6
20260508201450 62 56 3.0 11.0 0.00 0.00 0.00 49 1020.6
20260508200721 63 68 4.0 9.0 0.00 0.00 0.00 48 1020.6
20260508200451 63 105 4.0 9.0 0.00 0.00 0.00 49 1020.6
20260508195718 62 349 4.0 11.0 0.00 0.00 0.00 48 1020.6
20260508195449 63 63 5.0 12.0 0.00 0.00 0.00 48 1020.6
20260508194717 63 91 5.0 12.0 0.00 0.00 0.00 47 1020.6
20260508194217 63 73 5.0 10.0 0.00 0.00 0.00 48 1020.6
20260508193718 62 91 4.0 10.0 0.00 0.00 0.00 50 1020.6
20260508193216 62 87 3.0 8.0 0.00 0.00 0.00 49 1020.6
20260508192718 63 87 4.0 11.0 0.00 0.00 0.00 49 1020.6
20260508192216 62 128 4.0 11.0 0.00 0.00 0.00 48 1020.6
20260508191719 62 89 4.0 10.0 0.00 0.00 0.00 48 1020.6
20260508191446 62 92 4.0 8.0 0.00 0.00 0.00 51 1020.6
20260508190943 62 78 4.0 8.0 0.00 0.00 0.00 50 1020.6
20260508190212 62 84 5.0 10.0 0.00 0.00 0.00 50 1020.6
20260508185714 62 77 5.0 10.0 0.00 0.00 0.00 51 1020.6
20260508185213 62 330 6.0 10.0 0.00 0.00 0.00 51 1020.6
20260508184715 62 86 4.0 10.0 0.00 0.00 0.00 50 1020.6
20260508184212 61 58 3.0 9.0 0.00 0.00 0.00 52 1020.6
20260508183714 60 79 5.0 10.0 0.00 0.00 0.00 51 1020.6
20260508183211 60 87 6.0 12.0 0.00 0.00 0.00 51 1020.6
20260508182711 61 85 5.0 12.0 0.00 0.00 0.00 52 1020.6
20260508182210 60 86 3.0 10.0 0.00 0.00 0.00 50 1020.6
20260508181710 60 342 4.0 12.0 0.00 0.00 0.00 51 1020.6
20260508181211 60 71 6.0 12.0 0.00 0.00 0.00 53 1020.6
20260508180713 61 80 5.0 12.0 0.00 0.00 0.00 51 1020.6
20260508180210 61 94 4.0 9.0 0.00 0.00 0.00 54 1020.6
20260508175709 60 22 3.0 9.0 0.00 0.00 0.00 51 1020.6
20260508175208 60 47 1.0 9.0 0.00 0.00 0.00 53 1020.6
20260508174939 59 181 3.0 7.0 0.00 0.00 0.00 52 1020.6
20260508174208 59 0 4.0 9.0 0.00 0.00 0.00 52 1020.6
20260508173708 60 76 2.0 9.0 0.00 0.00 0.00 54 1020.6
20260508173209 59 124 4.0 9.0 0.00 0.00 0.00 53 1020.6
20260508172709 59 109 4.0 9.0 0.00 0.00 0.00 52 1020.6
20260508172207 58 69 4.0 7.0 0.00 0.00 0.00 55 1020.6
20260508171706 59 122 4.0 9.0 0.00 0.00 0.00 54 1020.6
20260508171207 58 60 4.0 9.0 0.00 0.00 0.00 55 1020.6
20260508170937 58 25 4.0 8.0 0.00 0.00 0.00 54 1020.6
20260508170437 58 70 4.0 8.0 0.00 0.00 0.00 56 1020.6
20260508165706 58 61 5.0 10.0 0.00 0.00 0.00 56 1020.6
20260508165437 58 73 6.0 11.0 0.00 0.00 0.00 55 1020.6
20260508164705 59 79 5.0 11.0 0.00 0.00 0.00 55 1020.6
20260508164205 59 90 3.0 8.0 0.00 0.00 0.00 58 1020.6
20260508163707 59 88 3.0 7.0 0.00 0.00 0.00 57 1020.6
20260508163206 59 108 4.0 10.0 0.00 0.00 0.00 59 1020.6
20260508162706 58 71 3.0 10.0 0.00 0.00 0.00 60 1020.6
20260508162205 58 61 4.0 9.0 0.00 0.00 0.00 59 1020.6
20260508161706 58 124 5.0 10.0 0.00 0.00 0.00 59 1020.6
20260508161209 58 118 2.0 6.0 0.00 0.00 0.00 57 1020.6
20260508161204 58 98 3.0 10.0 0.00 0.00 0.00 59 1020.6
20260508160204 58 131 3.0 9.0 0.00 0.00 0.00 56 1020.6
20260508155932 58 84 4.0 9.0 0.00 0.00 0.00 57 1020.6
20260508155203 58 85 3.0 9.0 0.00 0.00 0.00 57 1020.6
20260508154705 58 132 2.0 7.0 0.00 0.00 0.00 57 1020.6
20260508154432 57 104 1.0 6.0 0.00 0.00 0.00 57 1020.6
20260508153703 57 84 0.0 3.0 0.00 0.00 0.00 57 1020.6
20260508153203 58 297 1.0 6.0 0.00 0.00 0.00 56 1020.6
20260508152702 58 109 1.0 8.0 0.00 0.00 0.00 57 1020.6
20260508152200 58 101 1.0 8.0 0.00 0.00 0.00 55 1020.6
20260508151701 58 106 0.0 7.0 0.00 0.00 0.00 57 1020.6
20260508151201 58 127 0.0 7.0 0.00 0.00 0.00 56 1020.6
20260508150931 58 141 0.0 5.0 0.00 0.00 0.00 59 1020.6
20260508150201 57 68 0.0 5.0 0.00 0.00 0.00 59 1020.6
20260508145702 56 217 0.0 3.0 0.00 0.00 0.00 61 1020.6
20260508145435 56 109 0.0 4.0 0.00 0.00 0.00 61 1020.6
20260508144701 55 176 0.0 4.0 0.00 0.00 0.00 61 1020.6
20260508144201 55 202 1.0 4.0 0.00 0.00 0.00 63 1020.6
20260508143659 55 78 1.0 4.0 0.00 0.00 0.00 61 1020.6
20260508143157 56 226 0.0 2.0 0.00 0.00 0.00 62 1020.6
20260508142658 56 108 0.0 2.0 0.00 0.00 0.00 62 1020.6
20260508142200 55 94 0.0 3.0 0.00 0.00 0.00 64 1020.6
20260508141657 55 101 0.0 3.0 0.00 0.00 0.00 64 1020.6
20260508141159 54 274 0.0 3.0 0.00 0.00 0.00 65 1020.6
20260508140658 54 342 0.0 1.0 0.00 0.00 0.00 66 1020.6
20260508140159 53 288 0.0 1.0 0.00 0.00 0.00 67 1020.6
20260508135658 53 272 0.0 1.0 0.00 0.00 0.00 69 1020.6
20260508135156 52 288 0.0 0.0 0.00 0.00 0.00 70 1020.6
20260508134656 51 288 0.0 2.0 0.00 0.00 0.00 72 1020.6
20260508134156 50 288 0.0 3.0 0.00 0.00 0.00 73 1020.6
20260508133655 50 288 1.0 3.0 0.00 0.00 0.00 75 1020.6
20260508133154 49 279 1.0 4.0 0.00 0.00 0.00 77 1020.6
20260508132925 49 288 0.0 4.0 0.00 0.00 0.00 81 1020.6
20260508132153 47 313 1.0 4.0 0.00 0.00 0.00 83 1020.6
20260508131920 47 293 1.0 6.0 0.00 0.00 0.00 85 1020.6
20260508131153 45 268 2.0 7.0 0.00 0.00 0.00 86 1020.6
20260508131148 46 291 2.0 6.0 0.00 0.00 0.00 87 1020.6
20260508130145 45 295 2.0 7.0 0.00 0.00 0.00 86 1020.6
20260508125646 44 279 2.0 5.0 0.00 0.00 0.00 87 1020.6
20260508125146 44 278 3.0 5.0 0.00 0.00 0.00 87 1020.6